This demonstration page uses our WeatherBlox Daily Observations layout. Learn more.

41.55636, -103.73856

Hourly Observations for December 12, 2015

Temp ( °F °C ) Dew Point ( °F °C ) Humidity (%) Winds ( mph kmh ) Pressure ( in mb ) Visibility ( mi km ) Precip ( " mm )
12:53 am 00:53 Cloudy 34 1 27 -3 75 75 Calm 29.91 1013 10 16.09344 0 0
1:53 am 01:53 Cloudy 34 1 25 -4 70 70 Calm 29.88 1012 10 16.09344 0 0
2:53 am 02:53 Cloudy 34 1 25 -4 70 70 E 7 11 29.91 1013 10 16.09344 0 0
3:53 am 03:53 Cloudy 34 1 25 -4 70 70 E 3 6 29.91 1013 10 16.09344 0 0
4:53 am 04:53 Cloudy 32 0 25 -4 75 75 E 5 7 29.94 1014 10 16.09344 0 0
5:53 am 05:53 Cloudy 34 1 25 -4 70 70 Calm 29.94 1014 10 16.09344 0 0
6:53 am 06:53 Cloudy 32 0 25 -4 75 75 NE 5 7 29.97 1015 10 16.09344 0 0
7:53 am 07:53 Cloudy 34 1 27 -3 75 75 NNE 3 6 30 1016 10 16.09344 0 0
8:53 am 08:53 Cloudy 34 1 27 -3 75 75 Calm 30 1016 10 16.09344 0 0
9:53 am 09:53 Cloudy with Light Snow 36 2 28 -2 75 75 Calm 30 1016 6 9.656064 0.001 0.001
10:21 am 10:21 Cloudy with Light Snow 34 1 28 -2 81 81 Calm 30.03 1017 2 3.218688 0.001 0.001
10:35 am 10:35 Cloudy with Light Snow 36 2 28 -2 75 75 Calm 30 1016 1.75 2.816352 0.001 0.001
10:50 am 10:50 Mostly Cloudy with Scattered Snow Showers 34 1 30 -1 87 87 Calm 30.03 1017 0.75 1.207008 0 0
10:53 am 10:53 Mostly Cloudy with Scattered Snow Showers 34 1 30 -1 87 87 NNW 3 6 30.03 1017 0.75 1.207008 0.001 0.001
11:16 am 11:16 Cloudy with Light Snow 34 1 30 -1 87 87 N 3 6 30.03 1017 0.75 1.207008 0 0
11:28 am 11:28 Cloudy with Light Snow 34 1 30 -1 87 87 NNE 5 7 30 1016 0.75 1.207008 0 0
11:31 am 11:31 Cloudy with Light Snow 34 1 30 -1 87 87 NE 5 7 30 1016 1 1.609344 0.02 0.508
11:41 am 11:41 Cloudy with Light Snow 34 1 30 -1 87 87 NE 3 6 30 1016 2 3.218688 0.02 0.508
11:48 am 11:48 Cloudy with Light Snow 34 1 32 0 93 93 NE 3 6 30 1016 1.75 2.816352 0 0
11:53 am 11:53 Cloudy with Light Snow 34 1 32 0 93 93 NE 3 6 30 1016 1.5 2.414016 0.03 0.762
12:05 pm 12:05 Cloudy with Light Snow 34 1 30 -1 87 87 NE 6 9 30 1016 2.5 4.02336 0.001 0.001
12:18 pm 12:18 Cloudy with Light Snow 34 1 32 0 93 93 ENE 7 11 30 1016 1.5 2.414016 0 0
12:30 pm 12:30 Cloudy with Light Snow 34 1 30 -1 87 87 NE 7 11 30 1016 1 1.609344 0 0
12:37 pm 12:37 Cloudy with Snow 34 1 30 -1 87 87 NE 6 9 30 1016 0.5 0.804672 0.001 0.001
12:53 pm 12:53 Cloudy with Snow 34 1 30 -1 87 87 NE 8 13 29.94 1014 0.5 0.804672 0.01 0.254
1:00 pm 13:00 Cloudy with Snow 34 1 30 -1 87 87 NE 7 11 29.94 1014 0.5 0.804672 0 0
1:53 pm 13:53 Mostly Cloudy with Snow 34 1 30 -1 87 87 NNE 9 15 29.94 1014 0.5 0.804672 0.05 1.27
2:12 pm 14:12 Mostly Cloudy with Scattered Snow Showers 34 1 30 -1 87 87 NNE 8 13 29.94 1014 1 1.609344 0 0
2:53 pm 14:53 Mostly Cloudy with Scattered Snow Showers 34 1 32 0 93 93 NNE 6 9 30 1016 1 1.609344 0.02 0.508
3:00 pm 15:00 Mostly Cloudy with Snow 34 1 32 0 93 93 NNE 5 7 30 1016 0.5 0.804672 0 0
3:12 pm 15:12 Mostly Cloudy with Snow 34 1 32 0 93 93 N 6 9 30 1016 0.25 0.402336 0 0
3:23 pm 15:23 Mostly Cloudy with Snow 34 1 32 0 93 93 N 6 9 30 1016 0.5 0.804672 0.02 0.508
3:53 pm 15:53 Mostly Cloudy with Snow 34 1 32 0 93 93 N 5 7 30 1016 0.5 0.804672 0.05 1.27
4:08 pm 16:08 Cloudy with Light Snow 34 1 32 0 93 93 NNE 3 6 30 1016 0.75 1.207008 0 0
4:33 pm 16:33 Cloudy with Light Snow 34 1 32 0 93 93 NNE 5 7 30 1016 1.25 2.01168 0.02 0.508
4:45 pm 16:45 Cloudy with Light Snow 34 1 30 -1 87 87 NNE 6 9 30 1016 1.75 2.816352 0.02 0.508
4:53 pm 16:53 Cloudy with Light Snow 34 1 30 -1 87 87 NE 6 9 30 1016 2 3.218688 0.02 0.508
5:08 pm 17:08 Cloudy with Light Snow 34 1 30 -1 87 87 NNE 3 6 30 1016 3 4.828032 0 0
5:53 pm 17:53 Cloudy 32 0 30 -1 93 93 Calm 30.03 1017 10 16.09344 0.01 0.254
6:23 pm 18:23 Cloudy with Light Snow 32 0 30 -1 93 93 NW 7 11 30.03 1017 2.5 4.02336 0.001 0.001
6:36 pm 18:36 Cloudy with Light Snow 32 0 30 -1 93 93 NW 6 9 30.03 1017 2.5 4.02336 0 0
6:43 pm 18:43 Cloudy with Light Snow 32 0 30 -1 93 93 NW 7 11 30.03 1017 3 4.828032 0.001 0.001
6:53 pm 18:53 Cloudy with Light Snow 34 1 30 -1 87 87 NW 7 11 30.03 1017 3 4.828032 0.001 0.001
7:12 pm 19:12 Cloudy with Light Snow 34 1 30 -1 87 87 NNW 5 7 30.03 1017 2.5 4.02336 0 0
7:20 pm 19:20 Cloudy with Light Snow 32 0 30 -1 93 93 NNW 5 7 30.03 1017 2.5 4.02336 0 0
7:31 pm 19:31 Cloudy with Light Snow 32 0 30 -1 93 93 NNW 5 7 30.03 1017 4 6.437376 0.001 0.001
7:53 pm 19:53 Cloudy 32 0 30 -1 93 93 WNW 5 7 30.03 1017 10 16.09344 0.001 0.001
8:33 pm 20:33 Cloudy 32 0 30 -1 93 93 WNW 5 7 30.03 1017 10 16.09344 0 0
8:53 pm 20:53 Cloudy 32 0 30 -1 93 93 WNW 6 9 30.03 1017 10 16.09344 0 0
9:53 pm 21:53 Cloudy 32 0 30 -1 93 93 WNW 6 9 30.03 1017 10 16.09344 0 0
10:19 pm 22:19 Cloudy 32 0 30 -1 93 93 WNW 3 6 30.03 1017 10 16.09344 0 0
10:53 pm 22:53 Cloudy 30 -1 30 -1 100 100 NNW 5 7 30.06 1018 10 16.09344 0 0
11:53 pm 23:53 Clear 28 -2 27 -3 93 93 NW 5 7 30.03 1017 10 16.09344 0 0

Powered by AerisWeather